RYR33RX EIDW-LIEE

Flight info

Callsign RYR33RX
Flight time 2h 44m
Altitude 33000
Route ENDEQ1E ENDEQ Q36 EPOXI L15 KEPAD L151 MID UL612 OGULO DCT OKASI DCT OKEKO/N0461F350 DCT MOU DCT MADIV DCT MOKIP DCT TUFTA DCT KOGAS DCT MEDAM DCT NITAM DCT MOGBO DCT UNITA/N0397F190 M858 TORTU/N0461F350 A9 CORSI/N0398F190 M858 RAMEN M732 KOVAS
Aircraft B738/M-SDE2E3FGHIRWXY/LB1

Departure

Time 2026-04-30 11:49
Airport Dublin Airport (EIDW)

Arrival

Time 2026-04-30 14:33
Airport Cagliari Elmas Airport (LIEE)
Time Latitude Longitude Altitude Speed Heading
2026-04-30 10:59 53.42441 -6.26036 216 ft 0 kts 225°
2026-04-30 11:38 53.42445 -6.26030 215 ft 2 kts 226°
2026-04-30 11:39 53.42451 -6.26019 215 ft 2 kts 223°
2026-04-30 11:39 53.42465 -6.26007 215 ft 2 kts 191°
2026-04-30 11:39 53.42480 -6.26006 215 ft 2 kts 166°
2026-04-30 11:39 53.42493 -6.26017 215 ft 2 kts 142°
2026-04-30 11:40 53.42503 -6.26035 215 ft 2 kts 117°
2026-04-30 11:40 53.42507 -6.26054 216 ft 0 kts 98°
2026-04-30 11:40 53.42507 -6.26050 216 ft 2 kts 99°
2026-04-30 11:40 53.42505 -6.26026 215 ft 0 kts 96°
2026-04-30 11:43 53.42504 -6.26019 215 ft 3 kts 96°
2026-04-30 11:43 53.42497 -6.25924 213 ft 9 kts 108°
2026-04-30 11:43 53.42444 -6.25873 212 ft 9 kts 193°
2026-04-30 11:44 53.42386 -6.25954 214 ft 12 kts 224°
2026-04-30 11:44 53.42312 -6.26087 215 ft 18 kts 229°
2026-04-30 11:44 53.42267 -6.26276 217 ft 16 kts 275°
2026-04-30 11:44 53.42276 -6.26455 220 ft 15 kts 276°
2026-04-30 11:45 53.42286 -6.26617 223 ft 13 kts 276°
2026-04-30 11:45 53.42294 -6.26763 225 ft 11 kts 272°
2026-04-30 11:45 53.42301 -6.26945 227 ft 21 kts 274°
2026-04-30 11:45 53.42315 -6.27193 228 ft 21 kts 277°
2026-04-30 11:46 53.42329 -6.27419 231 ft 19 kts 276°
2026-04-30 11:46 53.42344 -6.27676 231 ft 24 kts 275°
2026-04-30 11:46 53.42359 -6.27938 235 ft 21 kts 276°
2026-04-30 11:46 53.42374 -6.28172 237 ft 18 kts 275°
2026-04-30 11:47 53.42362 -6.28303 238 ft 9 kts 223°
2026-04-30 11:47 53.42302 -6.28318 237 ft 8 kts 158°
2026-04-30 11:47 53.42252 -6.28256 236 ft 9 kts 141°
2026-04-30 11:47 53.42206 -6.28183 235 ft 8 kts 118°
2026-04-30 11:48 53.42194 -6.28082 235 ft 10 kts 97°
2026-04-30 11:48 53.42172 -6.27699 232 ft 63 kts 95°
2026-04-30 11:48 53.42114 -6.26640 221 ft 118 kts 95°
2026-04-30 11:48 53.42020 -6.25008 242 ft 158 kts 95°
2026-04-30 11:49 53.41897 -6.23258 877 ft 151 kts 96°
2026-04-30 11:49 53.41796 -6.21457 1301 ft 161 kts 96°
2026-04-30 11:49 53.41702 -6.19578 1828 ft 165 kts 99°
2026-04-30 11:49 53.41583 -6.17605 2102 ft 179 kts 98°
2026-04-30 11:50 53.41454 -6.15453 2377 ft 194 kts 98°
2026-04-30 11:50 53.41324 -6.13082 2582 ft 215 kts 98°
2026-04-30 11:50 53.41184 -6.10531 2999 ft 226 kts 99°
2026-04-30 11:50 53.41032 -6.07833 3381 ft 239 kts 99°
2026-04-30 11:51 53.40876 -6.05057 3951 ft 243 kts 99°
2026-04-30 11:51 53.40863 -6.02220 4545 ft 248 kts 89°
2026-04-30 11:51 53.41112 -5.99350 5140 ft 252 kts 85°
2026-04-30 11:51 53.41398 -5.96459 5749 ft 254 kts 86°
2026-04-30 11:52 53.41644 -5.93531 6342 ft 256 kts 88°
2026-04-30 11:52 53.41857 -5.90572 6944 ft 259 kts 88°
2026-04-30 11:52 53.42059 -5.87580 7613 ft 260 kts 89°
2026-04-30 11:52 53.42260 -5.84569 8169 ft 264 kts 89°
2026-04-30 11:53 53.42465 -5.81509 8797 ft 267 kts 89°
2026-04-30 11:53 53.42672 -5.78410 9396 ft 271 kts 89°
2026-04-30 11:53 53.42880 -5.75286 10064 ft 272 kts 89°
2026-04-30 11:53 53.43089 -5.72128 10582 ft 279 kts 89°
2026-04-30 11:54 53.43304 -5.68828 10885 ft 293 kts 89°
2026-04-30 11:54 53.43532 -5.65368 11229 ft 307 kts 89°
2026-04-30 11:54 53.43769 -5.61738 11540 ft 321 kts 89°
2026-04-30 11:54 53.44017 -5.58000 12089 ft 326 kts 89°
2026-04-30 11:55 53.44269 -5.54233 12741 ft 329 kts 89°
2026-04-30 11:55 53.44504 -5.50420 13355 ft 331 kts 91°
2026-04-30 11:55 53.44578 -5.46566 13817 ft 337 kts 95°
2026-04-30 11:55 53.44501 -5.42581 14106 ft 350 kts 97°
2026-04-30 11:56 53.44357 -5.38443 14336 ft 364 kts 97°
2026-04-30 11:56 53.44203 -5.34137 14672 ft 376 kts 98°
2026-04-30 11:56 53.44062 -5.29747 15189 ft 382 kts 97°
2026-04-30 11:56 53.43934 -5.25296 15795 ft 386 kts 97°
2026-04-30 11:57 53.43815 -5.20813 16437 ft 388 kts 97°
2026-04-30 11:57 53.43696 -5.16298 17023 ft 391 kts 97°
2026-04-30 11:57 53.43569 -5.11746 17580 ft 395 kts 97°
2026-04-30 11:57 53.43429 -5.07154 18141 ft 398 kts 98°
2026-04-30 11:58 53.43285 -5.02536 18716 ft 400 kts 98°
2026-04-30 11:58 53.43136 -4.97878 19267 ft 403 kts 98°
2026-04-30 11:58 53.42984 -4.93197 19818 ft 406 kts 98°
2026-04-30 11:58 53.42829 -4.88464 20280 ft 410 kts 98°
2026-04-30 11:59 53.42671 -4.83695 20845 ft 413 kts 98°
2026-04-30 11:59 53.42510 -4.78888 21329 ft 417 kts 98°
2026-04-30 11:59 53.42347 -4.74040 21787 ft 421 kts 98°
2026-04-30 11:59 53.42181 -4.69155 22314 ft 422 kts 98°
2026-04-30 12:00 53.42013 -4.64242 22815 ft 425 kts 98°
2026-04-30 12:00 53.41840 -4.59287 23274 ft 428 kts 97°
2026-04-30 12:00 53.41665 -4.54299 23769 ft 430 kts 97°
2026-04-30 12:00 53.41487 -4.49284 24242 ft 433 kts 97°
2026-04-30 12:01 53.41305 -4.44232 24651 ft 438 kts 97°
2026-04-30 12:01 53.41119 -4.39134 25146 ft 439 kts 97°
2026-04-30 12:01 53.40929 -4.33992 25535 ft 444 kts 98°
2026-04-30 12:01 53.40735 -4.28801 25964 ft 447 kts 98°
2026-04-30 12:02 53.40537 -4.23565 26406 ft 449 kts 98°
2026-04-30 12:02 53.40338 -4.18329 26939 ft 449 kts 98°
2026-04-30 12:02 53.40138 -4.13114 27554 ft 448 kts 98°
2026-04-30 12:02 53.39937 -4.07900 28168 ft 446 kts 98°
2026-04-30 12:03 53.39735 -4.02735 28781 ft 443 kts 98°
2026-04-30 12:03 53.39326 -3.92482 29846 ft 440 kts 98°
2026-04-30 12:03 53.39119 -3.87381 30321 ft 439 kts 98°
2026-04-30 12:04 53.38909 -3.82269 30767 ft 439 kts 98°
2026-04-30 12:04 53.38696 -3.77155 31156 ft 439 kts 98°
2026-04-30 12:04 53.38453 -3.72041 31539 ft 437 kts 100°
2026-04-30 12:04 53.38051 -3.66979 31969 ft 433 kts 104°
2026-04-30 12:05 53.37361 -3.62100 32419 ft 427 kts 110°
2026-04-30 12:05 53.36410 -3.57412 32852 ft 423 kts 114°
2026-04-30 12:05 53.35320 -3.52871 33175 ft 421 kts 117°
2026-04-30 12:06 53.32417 -3.44384 33206 ft 417 kts 128°
2026-04-30 12:06 53.28807 -3.36883 33209 ft 412 kts 132°
2026-04-30 12:07 53.25029 -3.29711 33208 ft 412 kts 134°
2026-04-30 12:07 53.21230 -3.22596 33206 ft 412 kts 134°
2026-04-30 12:08 53.17427 -3.15475 33203 ft 412 kts 134°
2026-04-30 12:08 53.13633 -3.08372 33207 ft 410 kts 133°
2026-04-30 12:09 53.09836 -3.01269 33204 ft 411 kts 133°
2026-04-30 12:09 53.06028 -2.94165 33201 ft 410 kts 133°
2026-04-30 12:10 53.02236 -2.87109 33206 ft 410 kts 133°
2026-04-30 12:10 52.98425 -2.80038 33207 ft 412 kts 133°
2026-04-30 12:11 52.94604 -2.72968 33208 ft 411 kts 133°
2026-04-30 12:11 52.90793 -2.65934 33204 ft 411 kts 133°
2026-04-30 12:12 52.86961 -2.58886 33207 ft 412 kts 133°
2026-04-30 12:12 52.83099 -2.51860 33207 ft 413 kts 134°
2026-04-30 12:13 52.78856 -2.45515 33205 ft 411 kts 143°
2026-04-30 12:13 52.74142 -2.40104 33199 ft 413 kts 146°
2026-04-30 12:14 52.69348 -2.34928 33204 ft 411 kts 147°
2026-04-30 12:14 52.64583 -2.29780 33197 ft 411 kts 147°
2026-04-30 12:15 52.59823 -2.24605 33198 ft 411 kts 146°
2026-04-30 12:15 52.55060 -2.19414 33201 ft 410 kts 146°
2026-04-30 12:16 52.50313 -2.14243 33200 ft 411 kts 146°
2026-04-30 12:16 52.45547 -2.09063 33200 ft 411 kts 146°
2026-04-30 12:17 52.38399 -2.01316 33197 ft 412 kts 146°
2026-04-30 12:17 52.33627 -1.96161 33199 ft 413 kts 146°
2026-04-30 12:18 52.28843 -1.91009 33200 ft 413 kts 146°
2026-04-30 12:18 52.24048 -1.85859 33200 ft 412 kts 146°
2026-04-30 12:19 52.19274 -1.80744 33200 ft 412 kts 146°
2026-04-30 12:19 52.14490 -1.75628 33194 ft 412 kts 146°
2026-04-30 12:20 52.09707 -1.70527 33200 ft 411 kts 146°
2026-04-30 12:20 52.04925 -1.65441 33195 ft 412 kts 146°
2026-04-30 12:21 52.00127 -1.60342 33202 ft 412 kts 146°
2026-04-30 12:21 51.95308 -1.55250 33198 ft 415 kts 146°
2026-04-30 12:22 51.90474 -1.50160 33201 ft 415 kts 146°
2026-04-30 12:22 51.85648 -1.45089 33199 ft 414 kts 146°
2026-04-30 12:23 51.80831 -1.40036 33196 ft 415 kts 146°
2026-04-30 12:23 51.76009 -1.34988 33197 ft 414 kts 147°
2026-04-30 12:24 51.71168 -1.29933 33196 ft 415 kts 147°
2026-04-30 12:24 51.66333 -1.24897 33194 ft 415 kts 146°
2026-04-30 12:25 51.61503 -1.19880 33197 ft 414 kts 146°
2026-04-30 12:25 51.56677 -1.14877 33196 ft 413 kts 146°
2026-04-30 12:26 51.51833 -1.09869 33195 ft 416 kts 146°
2026-04-30 12:26 51.46970 -1.04857 33194 ft 416 kts 146°
2026-04-30 12:27 51.42115 -0.99865 33184 ft 415 kts 146°
2026-04-30 12:27 51.37256 -0.94882 33188 ft 416 kts 146°
2026-04-30 12:28 51.32389 -0.89905 33189 ft 416 kts 146°
2026-04-30 12:28 51.27540 -0.84960 33187 ft 415 kts 146°
2026-04-30 12:29 51.22672 -0.80007 33184 ft 416 kts 146°
2026-04-30 12:29 51.17797 -0.75058 33185 ft 417 kts 146°
2026-04-30 12:30 51.12919 -0.70119 33335 ft 417 kts 146°
2026-04-30 12:30 51.10471 -0.67647 33458 ft 417 kts 146°
2026-04-30 12:30 51.08029 -0.65182 33650 ft 417 kts 146°
2026-04-30 12:31 51.05583 -0.62717 33834 ft 417 kts 146°
2026-04-30 12:31 51.03149 -0.60220 34024 ft 417 kts 145°
2026-04-30 12:31 51.00746 -0.57678 34208 ft 416 kts 144°
2026-04-30 12:31 50.98356 -0.55113 34403 ft 416 kts 144°
2026-04-30 12:32 50.95964 -0.52537 34593 ft 416 kts 144°
2026-04-30 12:32 50.93573 -0.49965 34767 ft 416 kts 144°
2026-04-30 12:32 50.91188 -0.47408 34930 ft 416 kts 144°
2026-04-30 12:32 50.88790 -0.44847 35088 ft 417 kts 144°
2026-04-30 12:33 50.83978 -0.39731 35181 ft 418 kts 144°
2026-04-30 12:33 50.79162 -0.34634 35177 ft 416 kts 145°
2026-04-30 12:34 50.74356 -0.29564 35180 ft 417 kts 145°
2026-04-30 12:34 50.69539 -0.24496 35171 ft 418 kts 145°
2026-04-30 12:35 50.64717 -0.19434 35177 ft 418 kts 145°
2026-04-30 12:35 50.59882 -0.14373 35167 ft 418 kts 145°
2026-04-30 12:36 50.55042 -0.09319 35161 ft 419 kts 145°
2026-04-30 12:36 50.50183 -0.04256 35164 ft 419 kts 145°
2026-04-30 12:37 50.45337 0.00778 35163 ft 419 kts 145°
2026-04-30 12:37 50.40479 0.05813 35157 ft 420 kts 145°
2026-04-30 12:38 50.35626 0.10829 35153 ft 420 kts 145°
2026-04-30 12:38 50.30765 0.15843 35159 ft 419 kts 145°
2026-04-30 12:39 50.25901 0.20850 35149 ft 420 kts 145°
2026-04-30 12:39 50.21042 0.25835 35158 ft 420 kts 145°
2026-04-30 12:40 50.16173 0.30831 35152 ft 420 kts 145°
2026-04-30 12:40 50.11306 0.35833 35151 ft 421 kts 145°
2026-04-30 12:41 50.06424 0.40839 35146 ft 421 kts 145°
2026-04-30 12:41 50.01533 0.45840 35137 ft 423 kts 145°
2026-04-30 12:42 49.96623 0.50846 35142 ft 423 kts 145°
2026-04-30 12:42 49.91731 0.55820 35141 ft 422 kts 144°
2026-04-30 12:43 49.86829 0.60792 35140 ft 423 kts 144°
2026-04-30 12:43 49.82089 0.66139 35136 ft 423 kts 140°
2026-04-30 12:44 49.77558 0.71924 35135 ft 422 kts 139°
2026-04-30 12:44 49.73052 0.77727 35141 ft 423 kts 139°
2026-04-30 12:45 49.68509 0.83496 35136 ft 424 kts 140°
2026-04-30 12:45 49.63944 0.89227 35134 ft 423 kts 140°
2026-04-30 12:46 49.59360 0.94949 35134 ft 425 kts 140°
2026-04-30 12:46 49.54758 1.00675 35135 ft 424 kts 140°
2026-04-30 12:47 49.50162 1.06376 35141 ft 424 kts 140°
2026-04-30 12:47 49.45580 1.12045 35141 ft 424 kts 140°
2026-04-30 12:48 49.40980 1.17725 35139 ft 425 kts 140°
2026-04-30 12:48 49.36374 1.23395 35142 ft 425 kts 140°
2026-04-30 12:49 49.31754 1.29070 35137 ft 426 kts 140°
2026-04-30 12:49 49.27131 1.34736 35124 ft 426 kts 140°
2026-04-30 12:50 49.22522 1.40371 35128 ft 425 kts 140°
2026-04-30 12:50 49.17914 1.45988 35119 ft 425 kts 140°
2026-04-30 12:51 49.13289 1.51613 35124 ft 426 kts 140°
2026-04-30 12:51 49.08637 1.57260 35124 ft 426 kts 140°
2026-04-30 12:52 49.03991 1.62884 35124 ft 426 kts 140°
2026-04-30 12:52 48.99332 1.68510 35117 ft 427 kts 141°
2026-04-30 12:53 48.94674 1.74121 35117 ft 428 kts 140°
2026-04-30 12:53 48.90018 1.79714 35116 ft 428 kts 141°
2026-04-30 12:54 48.85365 1.85291 35123 ft 427 kts 141°
2026-04-30 12:54 48.80717 1.90849 35127 ft 427 kts 141°
2026-04-30 12:55 48.76039 1.96430 35128 ft 431 kts 141°
2026-04-30 12:55 48.71336 2.02026 35130 ft 430 kts 141°
2026-04-30 12:56 48.66631 2.07609 35130 ft 431 kts 141°
2026-04-30 12:56 48.61918 2.13187 35131 ft 432 kts 140°
2026-04-30 12:57 48.57211 2.18783 35131 ft 431 kts 139°
2026-04-30 12:57 48.52829 2.24906 35125 ft 431 kts 134°
2026-04-30 12:58 48.48647 2.31364 35118 ft 432 kts 133°
2026-04-30 12:58 48.44458 2.37856 35117 ft 433 kts 133°
2026-04-30 12:59 48.40244 2.44295 35116 ft 432 kts 133°
2026-04-30 12:59 48.36007 2.50708 35112 ft 434 kts 133°
2026-04-30 13:00 48.31737 2.57112 35106 ft 435 kts 134°
2026-04-30 13:00 48.27087 2.62930 35109 ft 436 kts 145°
2026-04-30 13:01 48.21737 2.67254 35114 ft 437 kts 153°
2026-04-30 13:01 48.16296 2.71339 35110 ft 439 kts 151°
2026-04-30 13:02 48.10915 2.75626 35108 ft 438 kts 150°
2026-04-30 13:02 48.05472 2.79794 35100 ft 441 kts 154°
2026-04-30 13:03 47.99859 2.83413 35099 ft 440 kts 156°
2026-04-30 13:03 47.94198 2.86899 35096 ft 441 kts 156°
2026-04-30 13:04 47.88546 2.90401 35098 ft 441 kts 156°
2026-04-30 13:04 47.82893 2.93935 35100 ft 441 kts 155°
2026-04-30 13:05 47.77243 2.97482 35095 ft 441 kts 155°
2026-04-30 13:06 47.68732 3.02829 35092 ft 444 kts 156°
2026-04-30 13:06 47.63044 3.06395 35094 ft 445 kts 156°
2026-04-30 13:07 47.57352 3.09955 35096 ft 443 kts 156°
2026-04-30 13:07 47.51668 3.13501 35091 ft 445 kts 156°
2026-04-30 13:08 47.45973 3.17048 35093 ft 445 kts 156°
2026-04-30 13:08 47.40278 3.20584 35089 ft 445 kts 156°
2026-04-30 13:09 47.34561 3.24126 35086 ft 447 kts 156°
2026-04-30 13:09 47.28813 3.27679 35084 ft 448 kts 156°
2026-04-30 13:10 47.23064 3.31223 35085 ft 448 kts 156°
2026-04-30 13:10 47.17301 3.34768 35080 ft 450 kts 156°
2026-04-30 13:11 47.11516 3.38318 35079 ft 451 kts 156°
2026-04-30 13:11 47.05724 3.41863 35079 ft 452 kts 156°
2026-04-30 13:12 46.99922 3.45407 35080 ft 452 kts 156°
2026-04-30 13:12 46.94095 3.48958 35077 ft 453 kts 156°
2026-04-30 13:13 46.85372 3.54258 35075 ft 453 kts 156°
2026-04-30 13:14 46.76795 3.60016 35075 ft 452 kts 146°
2026-04-30 13:14 46.70438 3.69966 35077 ft 452 kts 121°
2026-04-30 13:15 46.67068 3.82700 35078 ft 452 kts 104°
2026-04-30 13:16 46.65620 3.91581 35081 ft 452 kts 103°
2026-04-30 13:16 46.64205 4.00481 35082 ft 452 kts 103°
2026-04-30 13:17 46.61981 4.13758 35084 ft 451 kts 103°
2026-04-30 13:18 46.59683 4.26999 35084 ft 451 kts 104°
2026-04-30 13:18 46.57353 4.40229 35085 ft 451 kts 104°
2026-04-30 13:19 46.55792 4.49028 35088 ft 451 kts 103°
2026-04-30 13:19 46.54223 4.57826 35090 ft 451 kts 103°
2026-04-30 13:20 46.52643 4.66636 35098 ft 450 kts 104°
2026-04-30 13:20 46.51060 4.75425 35103 ft 452 kts 104°
2026-04-30 13:21 46.49468 4.84216 35102 ft 451 kts 104°
2026-04-30 13:22 46.47070 4.97396 35098 ft 454 kts 104°
2026-04-30 13:22 46.44645 5.10626 35096 ft 454 kts 104°
2026-04-30 13:23 46.42206 5.23858 35097 ft 456 kts 104°
2026-04-30 13:24 46.38507 5.41346 35105 ft 459 kts 115°
2026-04-30 13:25 46.34970 5.49009 35112 ft 462 kts 127°
2026-04-30 13:25 46.30823 5.56100 35115 ft 464 kts 130°
2026-04-30 13:26 46.20227 5.73595 35129 ft 464 kts 130°
2026-04-30 13:28 46.09674 5.91218 35127 ft 466 kts 130°
2026-04-30 13:28 46.03336 6.01799 35134 ft 466 kts 130°
2026-04-30 13:29 45.94842 6.15916 35153 ft 466 kts 130°
2026-04-30 13:31 45.84225 6.33446 35170 ft 466 kts 130°
2026-04-30 13:31 45.77234 6.43086 35202 ft 467 kts 142°
2026-04-30 13:32 45.71964 6.48510 35210 ft 469 kts 144°
2026-04-30 13:33 45.61239 6.59095 35219 ft 468 kts 144°
2026-04-30 13:34 45.53234 6.67102 35219 ft 470 kts 144°
2026-04-30 13:35 45.42569 6.77819 35232 ft 472 kts 144°
2026-04-30 13:36 45.31820 6.88593 35241 ft 475 kts 145°
2026-04-30 13:36 45.23968 6.97109 35262 ft 474 kts 137°
2026-04-30 13:37 45.16858 7.06838 35260 ft 473 kts 135°
2026-04-30 13:38 45.10024 7.16949 35233 ft 475 kts 128°
2026-04-30 13:39 45.02286 7.32167 35295 ft 479 kts 123°
2026-04-30 13:39 44.97905 7.39182 35302 ft 481 kts 140°
2026-04-30 13:40 44.95261 7.42054 35295 ft 482 kts 144°
2026-04-30 13:40 44.89779 7.47407 35286 ft 479 kts 146°
2026-04-30 13:41 44.84273 7.52695 35280 ft 480 kts 146°
2026-04-30 13:41 44.78809 7.58052 35274 ft 479 kts 145°
2026-04-30 13:42 44.73360 7.63485 35269 ft 480 kts 144°
2026-04-30 13:42 44.65208 7.71685 35256 ft 482 kts 145°
2026-04-30 13:43 44.59757 7.77175 35260 ft 483 kts 145°
2026-04-30 13:43 44.54295 7.82666 35258 ft 484 kts 145°
2026-04-30 13:44 44.48836 7.88144 35243 ft 484 kts 145°
2026-04-30 13:44 44.43382 7.93601 35223 ft 483 kts 146°
2026-04-30 13:45 44.35174 8.01790 35213 ft 485 kts 146°
2026-04-30 13:46 44.29690 8.07245 35195 ft 485 kts 146°
2026-04-30 13:46 44.24206 8.12686 35197 ft 485 kts 146°
2026-04-30 13:47 44.18710 8.18127 35202 ft 486 kts 146°
2026-04-30 13:47 44.13214 8.23553 35199 ft 485 kts 146°
2026-04-30 13:48 44.07703 8.28983 35188 ft 487 kts 146°
2026-04-30 13:48 44.02184 8.34410 35174 ft 487 kts 146°
2026-04-30 13:49 43.96659 8.39828 35167 ft 487 kts 146°
2026-04-30 13:49 43.91121 8.45246 35162 ft 488 kts 146°
2026-04-30 13:50 43.85562 8.50672 35153 ft 488 kts 146°
2026-04-30 13:50 43.77212 8.58800 35158 ft 490 kts 146°
2026-04-30 13:51 43.71640 8.64208 35153 ft 490 kts 146°
2026-04-30 13:51 43.66045 8.69624 35153 ft 491 kts 147°
2026-04-30 13:52 43.60457 8.75023 35158 ft 491 kts 147°
2026-04-30 13:52 43.54867 8.80412 35152 ft 491 kts 148°
2026-04-30 13:53 43.49278 8.85786 35149 ft 491 kts 148°
2026-04-30 13:53 43.43639 8.91079 35150 ft 492 kts 151°
2026-04-30 13:54 43.37436 8.94664 35144 ft 482 kts 173°
2026-04-30 13:54 43.34133 8.95126 35145 ft 475 kts 184°
2026-04-30 13:54 43.30852 8.95031 35144 ft 471 kts 188°
2026-04-30 13:55 43.24369 8.94399 35143 ft 466 kts 190°
2026-04-30 13:55 43.17927 8.93604 35141 ft 466 kts 191°
2026-04-30 13:56 43.11486 8.92782 35135 ft 465 kts 191°
2026-04-30 13:56 43.05054 8.91982 35137 ft 466 kts 191°
2026-04-30 13:57 42.98605 8.91202 35132 ft 465 kts 191°
2026-04-30 13:57 42.92156 8.90438 35120 ft 465 kts 191°
2026-04-30 13:58 42.82476 8.89328 35122 ft 464 kts 191°
2026-04-30 13:59 42.76035 8.88614 35116 ft 465 kts 190°
2026-04-30 13:59 42.69589 8.87910 35154 ft 464 kts 191°
2026-04-30 13:59 42.66379 8.87548 35282 ft 463 kts 191°
2026-04-30 14:00 42.63168 8.87180 35439 ft 464 kts 191°
2026-04-30 14:00 42.56723 8.86437 35752 ft 466 kts 191°
2026-04-30 14:00 42.53496 8.86067 35910 ft 465 kts 191°
2026-04-30 14:01 42.50280 8.85699 36059 ft 464 kts 191°
2026-04-30 14:01 42.47072 8.85334 36219 ft 464 kts 191°
2026-04-30 14:01 42.43858 8.84968 36376 ft 464 kts 191°
2026-04-30 14:01 42.40641 8.84601 36574 ft 464 kts 191°
2026-04-30 14:02 42.37431 8.84236 36776 ft 464 kts 191°
2026-04-30 14:02 42.34217 8.83871 36989 ft 464 kts 191°
2026-04-30 14:02 42.31012 8.83508 37145 ft 465 kts 191°
2026-04-30 14:02 42.27784 8.83141 37138 ft 466 kts 191°
2026-04-30 14:03 42.21357 8.82416 37139 ft 462 kts 191°
2026-04-30 14:03 42.14973 8.81702 37135 ft 462 kts 191°
2026-04-30 14:04 42.08566 8.80983 37124 ft 463 kts 192°
2026-04-30 14:04 42.02159 8.80261 37119 ft 462 kts 191°
2026-04-30 14:05 41.95786 8.79545 37110 ft 460 kts 192°
2026-04-30 14:05 41.89391 8.78828 37110 ft 462 kts 192°
2026-04-30 14:06 41.79772 8.77762 37096 ft 463 kts 191°
2026-04-30 14:07 41.70063 8.77759 37091 ft 470 kts 183°
2026-04-30 14:08 41.60278 8.78757 37089 ft 472 kts 182°
2026-04-30 14:08 41.50497 8.79717 37080 ft 471 kts 183°
2026-04-30 14:09 41.43964 8.80303 37076 ft 471 kts 184°
2026-04-30 14:10 41.34179 8.81153 37073 ft 471 kts 183°
2026-04-30 14:10 41.27652 8.81710 37071 ft 471 kts 184°
2026-04-30 14:11 41.21142 8.82261 37070 ft 469 kts 184°
2026-04-30 14:11 41.14628 8.82808 37072 ft 471 kts 184°
2026-04-30 14:12 41.08116 8.83355 37074 ft 469 kts 184°
2026-04-30 14:12 41.01594 8.83903 37072 ft 472 kts 184°
2026-04-30 14:13 40.95060 8.84450 36916 ft 471 kts 184°
2026-04-30 14:13 40.91800 8.84723 36242 ft 470 kts 184°
2026-04-30 14:13 40.88549 8.84998 35791 ft 466 kts 184°
2026-04-30 14:13 40.85317 8.85270 35172 ft 467 kts 184°
2026-04-30 14:14 40.82073 8.85540 34459 ft 469 kts 184°
2026-04-30 14:14 40.78821 8.85808 33651 ft 471 kts 183°
2026-04-30 14:14 40.75552 8.86077 32812 ft 473 kts 183°
2026-04-30 14:14 40.72271 8.86347 31956 ft 476 kts 182°
2026-04-30 14:15 40.68971 8.86619 31109 ft 477 kts 182°
2026-04-30 14:15 40.65661 8.86894 30236 ft 479 kts 182°
2026-04-30 14:15 40.62345 8.87169 29381 ft 481 kts 182°
2026-04-30 14:15 40.59012 8.87446 28450 ft 483 kts 181°
2026-04-30 14:16 40.55663 8.87723 27492 ft 486 kts 181°
2026-04-30 14:16 40.52291 8.88002 26528 ft 488 kts 181°
2026-04-30 14:16 40.48911 8.88282 25545 ft 490 kts 181°
2026-04-30 14:16 40.45523 8.88562 24753 ft 487 kts 181°
2026-04-30 14:17 40.42174 8.88843 24097 ft 481 kts 181°
2026-04-30 14:17 40.38862 8.89121 23386 ft 476 kts 181°
2026-04-30 14:17 40.35576 8.89396 22682 ft 472 kts 180°
2026-04-30 14:17 40.32330 8.89667 22056 ft 466 kts 180°
2026-04-30 14:18 40.29121 8.89934 21369 ft 461 kts 180°
2026-04-30 14:18 40.25941 8.90198 20707 ft 456 kts 180°
2026-04-30 14:18 40.19680 8.90713 19329 ft 448 kts 179°
2026-04-30 14:19 40.13529 8.91217 18017 ft 440 kts 179°
2026-04-30 14:19 40.10491 8.91465 17346 ft 437 kts 179°
2026-04-30 14:19 40.07479 8.91711 16662 ft 434 kts 179°
2026-04-30 14:20 40.04491 8.91954 16022 ft 430 kts 179°
2026-04-30 14:20 40.01525 8.92196 15347 ft 427 kts 179°
2026-04-30 14:20 39.95653 8.92674 14041 ft 421 kts 179°
2026-04-30 14:21 39.92742 8.92911 13549 ft 413 kts 179°
2026-04-30 14:21 39.89900 8.93145 13284 ft 400 kts 179°
2026-04-30 14:21 39.84519 8.93589 12767 ft 370 kts 179°
2026-04-30 14:22 39.82008 8.93843 12457 ft 355 kts 175°
2026-04-30 14:22 39.77551 8.95872 11959 ft 330 kts 149°
2026-04-30 14:22 39.75674 8.97485 11714 ft 319 kts 145°
2026-04-30 14:23 39.72070 9.00744 10902 ft 314 kts 146°
2026-04-30 14:23 39.68446 9.03828 10054 ft 310 kts 147°
2026-04-30 14:24 39.64772 9.06680 9235 ft 306 kts 156°
2026-04-30 14:24 39.62735 9.07363 8830 ft 301 kts 176°
2026-04-30 14:25 39.58608 9.07378 8068 ft 294 kts 182°
2026-04-30 14:25 39.54545 9.07269 7264 ft 290 kts 185°
2026-04-30 14:26 39.50898 9.05501 6650 ft 273 kts 218°
2026-04-30 14:26 39.49438 9.04022 6466 ft 259 kts 220°
2026-04-30 14:26 39.46823 9.01358 5836 ft 230 kts 219°
2026-04-30 14:27 39.45579 9.00160 5527 ft 215 kts 218°
2026-04-30 14:27 39.44406 8.99054 5195 ft 204 kts 218°
2026-04-30 14:27 39.43275 8.97990 4827 ft 198 kts 218°
2026-04-30 14:28 39.41205 8.96040 4235 ft 176 kts 218°
2026-04-30 14:28 39.40227 8.95118 3866 ft 172 kts 218°
2026-04-30 14:28 39.39271 8.94219 3477 ft 170 kts 218°
2026-04-30 14:28 39.38317 8.93323 3070 ft 170 kts 218°
2026-04-30 14:29 39.36148 8.92711 2256 ft 163 kts 149°
2026-04-30 14:29 39.34545 8.94536 1677 ft 148 kts 134°
2026-04-30 14:30 39.32240 8.97167 1710 ft 146 kts 134°
2026-04-30 14:31 39.30693 8.98961 1253 ft 147 kts 135°
2026-04-30 14:31 39.29240 9.00681 886 ft 138 kts 136°
2026-04-30 14:31 39.28527 9.01520 704 ft 140 kts 138°
2026-04-30 14:32 39.27085 9.03196 324 ft 139 kts 139°
2026-04-30 14:32 39.26364 9.04025 132 ft 138 kts 140°
2026-04-30 14:32 39.25664 9.04839 22 ft 128 kts 141°
2026-04-30 14:33 39.25104 9.05476 20 ft 80 kts 137°
2026-04-30 14:33 39.24689 9.05966 20 ft 14 kts 117°
2026-04-30 14:33 39.24692 9.06068 20 ft 1 kts 65°
2026-04-30 14:34 39.24695 9.06074 20 ft 0 kts 65°
2026-04-30 14:34 39.24696 9.06076 20 ft 2 kts 65°
2026-04-30 14:34 39.24735 9.06145 20 ft 11 kts 24°
2026-04-30 14:34 39.24797 9.06110 20 ft 10 kts 315°
2026-04-30 14:35 39.24913 9.05968 20 ft 16 kts 320°
2026-04-30 14:35 39.25001 9.05873 20 ft 16 kts 319°
2026-04-30 14:35 39.25080 9.05787 20 ft 10 kts 327°
2026-04-30 14:36 39.25139 9.05804 20 ft 9 kts 62°
2026-04-30 14:36 39.25171 9.05875 20 ft 8 kts 59°
2026-04-30 14:36 39.25221 9.05900 20 ft 7 kts
2026-04-30 14:36 39.25230 9.05901 20 ft 0 kts